Tracking 29511 objects as of 17-Sep-2024
HD Live streaming from Space Station
objects crossing your sky now

SL-8 DEB

Track SL-8 DEB now!
10-day predictions


NORAD ID: 21958
Int'l Code: 1991-009CG
Perigee: 1,506.4 km
Apogee: 1,721.1 km
Inclination: 74.0 °
Period: 118.3 minutes
Semi major axis: 7984 km
RCS: 0.0969 m2 (small)
Launch date: February 12, 1991
Source: Commonwealth of Independent States (former USSR) (CIS)
Launch site: PLESETSK MISSILE AND SPACE COMPLEX (PKMTR)

Note: This is SATELLITE DEBRIS
Your satellite tracking list
Your tracking list is empty




NASA's NSSDC Master Catalog

Two Line Element Set (TLE):
1 21958U 91009CG  24260.12960753  .00000029  00000-0  42771-3 0  9996
2 21958  73.9629 297.2744 0134451 330.9556  57.2440 12.16779353489059
Source of the keplerian elements: AFSPC